Theta_e
301 302 302 301 300 298 297 297 296 296 298 299 299 299 300 305 308 310 311 315 321 324 324 323 323 325 325 325 324 321 320 319 319 320 321 322 322 323 321 323 323 321 319
303 302 301 301 299 298 297 296 296 297 298 298 298 298 299 303 304 308 309 315 317 323 325 324 323 323 324 325 323 321 320 319 320 321 321 318 320 320 318 316 317 318 318
303 301 300 300 298 297 296 296 297 297 298 297 298 298 300 302 302 304 308 312 315 317 324 322 320 322 323 324 324 322 321 320 321 321 321 316 315 315 315 315 315 315 315
303 302 301 299 298 297 296 296 297 297 297 297 297 298 298 298 300 301 305 314 311 319 323 322 321 322 325 325 322 321 320 321 321 322 322 321 318 314 315 315 314 313 312
302 302 299 300 299 297 296 296 296 297 297 297 297 297 297 298 300 301 304 311 311 314 317 323 323 324 324 324 323 322 322 321 321 322 322 322 320 319 316 314 312 311 310
302 301 300 300 298 296 295 295 295 295 296 296 297 296 297 298 299 300 302 306 308 311 315 320 322 323 324 324 324 324 322 322 322 322 322 322 320 319 317 314 314 312 303
301 299 298 298 297 296 295 295 295 296 296 296 296 296 297 297 298 299 300 302 306 307 310 314 319 321 323 324 324 324 323 323 323 322 321 320 319 319 319 319 317 313 301
300 301 299 298 297 296 295 294 295 296 295 295 296 296 296 297 297 298 299 300 302 303 306 309 315 317 321 323 323 323 323 323 322 322 321 321 320 319 320 319 317 314 306
300 299 298 298 297 295 294 294 294 295 295 296 296 296 296 296 296 297 298 299 300 302 305 310 312 315 319 322 324 323 323 322 320 322 321 321 321 320 320 319 319 317 313
299 298 298 297 297 295 293 293 294 294 294 295 295 295 296 296 296 297 297 298 299 301 303 307 310 314 317 320 322 323 322 321 321 321 320 320 320 320 319 319 318 318 315
297 296 297 297 297 296 293 293 293 294 294 295 295 295 296 296 296 296 296 297 299 300 301 305 310 313 316 318 319 321 321 321 320 320 320 319 318 318 317 318 317 317 315
296 295 296 297 297 296 293 293 293 293 294 295 295 295 296 296 296 296 296 297 298 299 301 305 309 314 315 317 320 320 320 320 319 318 319 318 317 317 317 316 315 316 313
297 295 295 296 296 296 293 293 292 293 294 295 296 296 296 296 296 296 296 297 298 299 302 304 307 311 313 316 318 319 318 318 317 316 316 314 313 313 313 312 313 312 310
295 295 295 295 295 293 293 292 292 292 294 295 295 296 296 296 296 296 296 298 299 300 303 305 307 310 312 314 315 315 315 314 313 312 312 312 312 311 310 310 310 308 307
290 289 287 291 294 293 292 292 292 292 294 295 295 296 296 296 297 297 297 297 299 300 302 304 306 307 310 311 313 313 313 312 310 308 309 309 308 309 308 309 309 309 307
291 288 289 290 292 293 292 291 292 291 294 295 294 295 297 296 296 296 298 298 298 298 301 303 305 306 307 307 309 311 309 307 307 306 303 303 304 305 302 301 302 303 305
295 293 292 292 292 292 292 291 291 292 293 295 295 294 296 297 297 296 297 298 299 300 300 301 302 302 302 305 306 306 306 305 304 303 301 299 297 296 294 293 295 297 296
296 297 295 294 293 293 292 291 292 293 294 295 295 294 294 296 297 297 297 297 298 300 301 301 302 302 301 304 304 305 304 303 301 299 297 295 293 292 292 292 292 291 291
297 299 299 297 294 293 292 292 292 293 294 294 295 294 293 294 294 295 295 297 298 298 299 300 301 303 302 302 303 303 301 300 299 297 296 295 293 291 291 290 290 290 290
300 299 299 297 294 293 292 293 293 293 294 295 294 292 292 294 294 294 294 294 295 297 298 297 298 300 302 302 303 301 299 298 296 294 292 291 291 290 290 289 290 289 288
299 299 299 297 295 293 292 292 293 294 295 295 294 293 291 291 295 295 294 293 293 293 294 296 296 296 297 296 296 298 298 296 294 292 291 290 289 289 289 288 288 289 288
297 298 297 296 295 293 292 291 291 294 294 294 294 294 291 290 291 293 294 294 294 292 292 292 292 292 292 293 292 293 293 292 292 291 290 289 289 288 288 288 288 287 287
296 297 297 296 295 294 293 292 292 291 291 292 292 293 292 291 290 290 291 293 293 293 292 291 291 292 291 291 291 291 290 291 291 290 289 289 289 288 287 287 287 287 286
296 296 296 295 295 294 294 293 292 291 291 291 290 291 291 291 289 289 289 289 290 291 291 291 292 292 291 290 289 289 289 289 289 289 288 287 287 287 287 286 286 285 285
297 297 296 296 296 296 295 294 293 292 291 291 290 290 290 289 289 289 289 289 289 289 289 290 291 290 291 291 290 289 288 288 288 287 287 286 286 285 285 285 285 285 284
297 297 297 297 297 297 297 296 294 293 292 291 290 290 290 289 289 289 289 288 288 288 288 288 288 289 289 289 289 289 288 287 286 286 286 286 285 284 283 282 282 282 283
Wind_Speed
9 11 9 3 2 3 4 8 12 13 12 14 16 14 9 6 6 9 10 12 6 26 35 33 31 31 32 35 33 29 25 22 19 15 11 12 10 9 7 9 7 5 3
4 8 7 7 4 0 3 7 11 12 11 13 10 12 13 6 6 9 11 12 4 12 33 31 30 28 30 29 32 30 25 20 21 11 8 1 2 5 6 3 4 5 7
3 5 9 6 3 2 5 8 9 10 10 11 11 11 5 5 8 13 12 12 11 12 25 25 23 24 28 35 31 28 29 22 23 16 6 2 3 6 5 8 9 8 7
1 2 5 5 2 2 6 6 8 8 9 10 10 10 9 7 10 12 12 10 13 18 16 21 23 24 22 28 29 28 28 25 23 17 12 3 5 3 2 5 9 10 8
5 4 5 5 1 2 4 6 7 6 10 9 9 9 9 9 11 11 10 11 11 13 15 18 20 18 22 22 26 27 26 24 24 21 17 12 5 5 3 3 5 6 4
5 4 7 3 3 1 4 6 7 7 8 9 9 8 10 11 11 11 12 12 10 13 10 10 9 11 17 19 21 27 27 26 21 23 17 17 7 7 4 2 4 8 4
2 3 6 4 5 1 5 5 6 7 9 9 8 8 9 8 11 10 11 10 11 11 10 8 5 5 9 13 13 22 26 25 23 22 18 14 12 6 10 8 4 4 4
1 2 5 6 4 2 3 4 6 8 8 8 8 8 8 10 7 6 8 11 10 8 8 7 6 5 7 14 14 12 18 19 16 17 16 14 11 9 10 10 8 2 3
2 4 5 5 4 2 2 4 4 6 7 10 9 8 7 7 9 9 8 9 8 7 8 8 3 3 7 10 15 21 20 19 16 16 13 10 9 9 9 11 12 8 3
3 1 2 6 3 1 2 2 4 4 5 6 6 7 7 7 7 6 7 5 6 6 5 4 5 3 7 8 12 19 20 19 18 13 8 9 11 10 10 7 8 11 9
1 2 3 4 3 1 1 2 3 4 5 6 6 6 7 7 7 7 6 5 5 5 3 4 6 5 7 8 10 11 13 10 11 9 8 7 7 12 6 6 7 10 11
4 3 6 7 4 3 1 0 1 2 4 5 5 7 8 8 8 7 7 6 6 4 2 3 4 7 9 11 14 15 15 14 15 12 10 9 7 8 6 7 9 12 11
3 4 5 6 6 6 3 2 0 1 2 4 5 7 8 9 9 8 6 6 7 5 4 3 6 7 9 13 16 15 15 15 13 11 10 9 9 8 8 9 10 10 10
5 4 3 4 7 8 4 4 2 1 2 3 4 7 8 9 8 8 7 8 6 5 6 7 8 9 10 11 12 12 14 14 12 12 11 11 10 10 10 9 9 10 11
5 6 5 5 6 8 7 5 4 2 1 2 4 6 7 8 8 9 9 8 8 8 8 8 9 10 12 12 13 13 13 12 14 13 12 10 8 7 7 7 10 11 13
8 7 6 10 11 12 10 8 6 5 3 1 2 3 5 7 9 10 11 10 10 10 11 12 12 13 14 11 11 13 15 15 15 15 12 10 8 8 8 8 9 8 12
8 8 8 15 14 14 12 12 10 7 5 3 1 3 4 5 8 9 11 12 13 13 15 15 15 17 16 14 13 13 13 13 12 11 10 10 9 8 8 8 9 11 10
8 7 12 13 14 14 14 12 12 11 7 5 3 3 2 4 5 6 8 10 11 12 13 14 14 15 15 12 10 10 10 11 11 10 9 8 8 8 7 8 9 10 10
11 13 15 16 17 17 17 15 15 13 11 10 7 5 5 3 3 3 4 6 7 9 10 11 11 11 11 11 10 9 10 10 9 8 7 6 6 8 8 8 10 11 11
16 16 17 15 18 19 19 17 16 14 13 11 9 7 6 6 4 3 3 2 4 6 7 8 9 9 9 11 10 9 8 9 8 7 6 6 5 7 8 9 11 13 14
15 16 20 20 19 21 21 19 16 16 11 10 9 7 7 6 6 5 3 3 4 4 5 5 6 6 6 6 7 10 10 9 10 8 8 7 7 8 8 9 9 8 15
12 17 20 19 19 20 22 20 19 13 14 13 12 10 8 7 7 7 7 6 5 4 5 6 7 7 7 6 7 7 8 9 9 10 8 9 10 8 9 11 10 10 14
12 16 20 20 19 21 21 20 17 14 16 15 16 15 12 12 10 9 9 9 9 9 8 8 9 8 8 8 8 8 8 8 9 9 9 10 11 11 11 11 11 12 16
12 14 17 19 21 22 23 20 15 14 16 16 16 16 16 15 14 12 11 11 11 12 12 13 14 12 12 11 11 11 10 11 11 11 11 11 11 10 10 12 12 13 15
14 15 19 20 21 21 22 20 19 17 18 18 17 18 17 17 16 16 15 15 14 14 15 15 13 14 15 13 12 12 12 11 10 12 14 15 14 13 13 12 13 15 16
14 17 19 19 18 18 20 19 20 20 20 21 21 21 20 20 19 18 18 19 18 17 18 17 17 15 15 13 10 12 14 12 13 16 18 19 18 15 13 15 14 14 16
Wind_Direction
178 187 181 187 229 294 320 331 326 329 333 343 350 346 332 333 349 352 343 11 200 200 207 204 202 199 187 185 189 184 181 183 181 180 170 192 215 225 262 244 234 206 190
204 201 188 193 202 201 342 334 325 330 338 343 352 329 316 337 348 359 6 30 17 190 195 197 190 201 195 184 188 182 180 186 187 174 147 182 116 184 168 173 166 175 179
230 141 189 193 158 28 348 336 331 335 339 344 347 351 319 352 9 18 17 38 43 97 177 180 183 198 203 178 183 185 182 175 182 186 153 122 187 138 116 107 123 134 147
128 236 196 148 113 4 343 343 338 349 337 350 5 13 0 346 356 4 17 44 37 85 134 172 180 184 183 180 184 183 185 183 182 187 207 203 147 155 137 102 115 139 131
182 193 174 169 182 319 1 344 343 340 345 354 11 18 3 3 360 7 32 74 55 56 86 145 165 175 185 184 186 188 194 197 196 191 201 214 206 164 143 164 166 139 129
192 194 191 182 173 156 20 355 359 343 347 354 13 17 12 15 13 17 33 52 60 61 67 96 139 166 181 190 200 203 199 199 204 199 203 197 178 191 165 135 155 167 146
140 156 198 203 166 350 4 15 354 354 343 354 15 21 23 18 34 7 33 52 57 56 56 86 176 153 181 186 180 194 201 199 201 199 198 203 205 201 210 194 160 141 153
123 218 152 171 166 85 8 15 14 344 348 357 16 19 19 17 357 29 47 48 55 47 57 72 113 175 184 197 212 178 181 186 196 202 205 211 218 230 225 212 172 117 119
173 148 176 171 160 132 34 16 31 348 352 354 6 18 24 13 18 18 36 52 55 43 53 62 86 174 176 175 199 207 196 190 196 198 197 210 230 242 237 245 237 163 161
32 126 186 167 162 114 52 26 28 23 359 5 12 12 21 20 23 22 32 31 49 51 67 80 94 123 196 185 176 197 192 193 184 184 199 245 236 215 216 228 227 212 180
96 111 147 184 179 132 25 44 20 17 18 17 16 34 28 28 30 30 24 36 55 32 37 84 83 111 159 187 200 178 173 174 175 179 180 197 207 201 195 199 197 184 176
177 150 155 180 220 190 234 82 23 15 33 25 23 34 33 35 39 31 27 38 60 43 20 90 111 115 123 140 174 177 160 153 160 168 174 177 194 191 189 191 182 178 173
210 152 148 180 205 219 177 258 287 329 53 43 38 42 42 46 40 39 41 51 61 52 64 95 103 117 119 132 131 138 144 157 161 168 169 173 170 160 155 158 158 159 167
221 194 146 169 162 184 205 183 248 310 45 53 49 48 41 46 52 56 63 73 83 93 87 89 92 107 114 123 130 136 140 146 150 151 154 151 155 156 155 157 161 163 156
226 210 180 195 188 184 184 197 194 208 3 71 73 69 56 56 63 69 73 86 97 101 112 110 105 112 121 126 132 134 133 141 137 134 135 139 138 136 144 159 163 168 162
232 209 185 190 211 210 193 185 204 186 174 152 67 78 72 71 75 83 91 95 96 104 115 118 115 110 106 113 129 135 136 137 132 127 121 123 133 146 155 162 161 168 169
208 190 191 193 201 202 196 183 179 178 181 170 89 53 92 82 79 89 95 97 99 108 109 111 117 111 111 119 124 130 130 132 129 125 128 129 132 140 147 150 154 158 162
211 192 183 179 189 188 187 178 172 171 177 177 158 149 89 102 94 94 96 102 107 112 113 115 114 115 113 122 124 129 136 134 127 132 135 142 138 140 144 156 151 144 152
202 195 187 178 175 181 177 177 176 176 180 182 182 180 173 153 131 111 101 108 116 114 114 117 124 129 127 131 133 143 141 129 135 152 156 159 161 162 160 167 153 141 133
189 176 174 175 173 175 180 182 185 186 190 191 185 181 176 171 165 136 127 128 143 140 134 131 137 144 153 162 162 158 161 163 163 161 167 169 163 161 173 183 174 159 152
175 174 175 179 184 177 181 189 195 206 196 191 188 188 182 180 179 182 188 167 164 167 159 153 151 161 174 183 182 178 189 190 182 182 174 176 171 175 180 185 182 181 161
167 177 174 182 182 186 188 192 205 203 198 195 199 200 198 195 197 195 192 203 206 204 194 187 184 183 188 199 204 208 207 202 203 193 185 183 183 192 189 183 183 180 169
187 185 186 184 188 193 200 203 209 202 203 204 205 206 207 210 209 211 212 205 209 216 221 229 234 224 221 218 216 212 217 222 216 214 201 194 198 201 199 197 198 191 187
206 198 192 192 197 202 205 212 211 209 211 216 216 214 216 216 221 221 218 224 232 228 227 231 238 244 247 244 238 228 222 224 216 210 203 203 203 203 205 193 194 195 201
210 209 209 211 212 210 216 216 214 212 211 218 222 223 225 227 228 233 237 238 240 242 244 246 249 246 253 261 259 249 243 236 228 212 202 200 201 198 200 203 211 208 209
217 215 220 229 231 222 223 222 222 221 219 219 221 225 229 231 235 240 245 247 248 246 248 248 248 248 250 249 251 251 245 235 223 210 214 218 220 219 219 221 221 226 227